This is the latest recevied weather packets stored in our database for station/object K1KOF. If no packets are shown the sender has not sent any weather packets the latest 1 day(s).
| Time | Temp. | Humidity | Pressure | Rain* | Wind** | Luminosity | Snow |
|---|---|---|---|---|---|---|---|
| 1778048562 | 18.33° C | 78% | 1024.7 hPa | 0 mm | 0.45 m/s, 234° | 0 W/m² | - |
| 1778048258 | 18.33° C | 78% | 1024.7 hPa | 0 mm | 1.34 m/s, 174° | 0 W/m² | - |
| 1778047956 | 18.33° C | 78% | 1024.8 hPa | 0 mm | 0.89 m/s, 0° | 0 W/m² | - |
| 1778047654 | 18.89° C | 77% | 1024.8 hPa | 0 mm | 0 m/s | 0 W/m² | - |
| 1778047351 | 18.89° C | 77% | 1024.9 hPa | 0 mm | 0.89 m/s, 231° | 0 W/m² | - |
| 1778047048 | 18.89° C | 77% | 1025.1 hPa | 0 mm | 0 m/s | 0 W/m² | - |
| 1778046744 | 18.89° C | 76% | 1025 hPa | 0 mm | 1.34 m/s, 263° | 0 W/m² | - |
| 1778046442 | 18.89° C | 77% | 1025 hPa | 0 mm | 0.89 m/s, 248° | 0 W/m² | - |
| 1778046137 | 18.89° C | 76% | 1025.1 hPa | 0 mm | 1.34 m/s, 197° | 0 W/m² | - |
| 1778045835 | 18.89° C | 76% | 1025.1 hPa | 0 mm | 0.89 m/s, 195° | 0 W/m² | - |
| 1778045534 | 18.89° C | 77% | 1025.1 hPa | 0 mm | 0.89 m/s, 259° | 0 W/m² | - |
| 1778045231 | 18.89° C | 76% | 1024.9 hPa | 0 mm | 2.24 m/s, 195° | 0 W/m² | - |
| 1778044930 | 18.89° C | 77% | 1025.1 hPa | 0 mm | 2.68 m/s, 203° | 0 W/m² | - |
| 1778044627 | 18.89° C | 76% | 1025.1 hPa | 0 mm | 0 m/s | 0 W/m² | - |
| 1778044323 | 19.44° C | 77% | 1025.4 hPa | 0 mm | 1.79 m/s, 150° | 0 W/m² | - |
| 1778044021 | 19.44° C | 78% | 1025.4 hPa | 0 mm | 0 m/s | 0 W/m² | - |
| 1778043718 | 19.44° C | 78% | 1025 hPa | 0 mm | 1.34 m/s, 255° | 0 W/m² | - |
| 1778043415 | 19.44° C | 77% | 1024.9 hPa | 0 mm | 1.79 m/s, 192° | 0 W/m² | - |
| 1778043111 | 19.44° C | 78% | 1025.2 hPa | 0 mm | 0.89 m/s, 150° | 0 W/m² | - |
| 1778042809 | 19.44° C | 77% | 1025.2 hPa | 0 mm | 1.34 m/s, 209° | 0 W/m² | - |
| 1778042505 | 19.44° C | 77% | 1025.3 hPa | 0 mm | 2.24 m/s, 217° | 0 W/m² | - |
| 1778042203 | 20° C | 77% | 1025.2 hPa | 0 mm | 1.79 m/s, 186° | 0 W/m² | - |
| 1778041901 | 20° C | 77% | 1025 hPa | 0 mm | 3.58 m/s, 195° | 0 W/m² | - |
| 1778041600 | 20° C | 77% | 1025 hPa | 0 mm | 1.34 m/s, 185° | 0 W/m² | - |
| 1778041297 | 20° C | 77% | 1025.2 hPa | 0 mm | 2.24 m/s, 202° | 0 W/m² | - |
* Rain latest hour (hover to see other rain measurements)
** Current wind speed in m/s (hover to see current wind gust speed)